CDT,Max TemperatureF,Mean TemperatureF,Min TemperatureF,Max Dew PointF,MeanDew PointF,Min DewpointF,Max Humidity, Mean Humidity, Min Humidity, Max Sea Level PressureIn, Mean Sea Level PressureIn, Min Sea Level PressureIn, Max VisibilityMiles, Mean VisibilityMiles, Min VisibilityMiles, Max Wind SpeedMPH, Mean Wind SpeedMPH, Max Gust SpeedMPH,PrecipitationIn, CloudCover, Events, WindDirDegrees
2013-5-1,61,48,37,50,40,30,96,68,47,30.38,30.18,29.91,10,9,3,17,8,25,0.15,4,Rain,337
2013-5-2,42,36,32,32,30,28,92,79,68,30.41,30.35,30.29,10,9,4,20,15,29,0.10,8,Rain,345
2013-5-3,41,36,30,36,32,28,93,89,79,30.33,30.21,30.13,10,10,5,18,11,23,0.11,8,Rain,354
2013-5-4,75,55,37,46,40,35,100,69,33,30.17,30.13,30.06,10,10,9,9,6,17,0.02,2,Rain,11
2013-5-5,73,55,37,38,36,34,89,57,24,30.15,30.11,30.05,10,10,10,9,6,,0.00,0,,353
2013-5-6,77,55,33,40,36,31,93,52,21,30.13,30.07,29.99,10,10,10,10,4,,0.00,0,,97
2013-5-7,79,58,37,41,34,25,89,45,15,30.09,30.04,29.99,10,10,10,12,2,22,0.00,0,,111
2013-5-8,81,60,39,43,38,33,86,44,18,30.03,29.99,29.95,10,10,10,9,2,18,0.00,2,,138
2013-5-9,63,50,37,44,38,32,93,74,50,30.14,30.06,29.96,10,9,5,15,8,21,0.15,6,Rain,6
2013-5-10,59,46,33,36,28,18,87,58,20,30.10,30.01,29.90,10,10,10,15,7,20,0.00,3,Rain,34
2013-5-11,46,39,33,39,32,24,100,77,44,29.94,29.84,29.76,10,9,2,25,11,37,0.03,7,Rain-Snow,309
2013-5-12,45,36,26,27,22,16,79,60,35,30.13,30.03,29.91,10,10,10,22,16,36,0.00,6,,326
2013-5-13,60,42,24,34,21,15,75,49,20,30.15,30.07,29.90,10,10,10,16,3,21,0.00,2,,209
2013-5-14,66,52,39,43,37,32,77,58,42,29.86,29.70,29.50,10,10,10,15,7,23,0.00,1,,131
2013-5-15,77,60,42,46,37,29,86,46,18,29.78,29.70,29.51,10,10,10,23,9,34,0.00,0,,311
2013-5-16,73,58,43,41,36,28,86,48,18,30.10,29.95,29.80,10,10,10,14,4,20,0.00,0,,29
2013-5-17,66,52,39,42,38,35,86,60,36,30.19,30.14,30.09,10,10,10,12,4,,0.00,3,,119
2013-5-18,68,58,48,49,46,41,93,71,49,30.14,30.07,29.96,10,9,3,13,5,20,0.08,7,Rain,126
2013-5-19,84,66,52,60,55,45,86,66,47,29.97,29.87,29.80,10,10,7,14,6,23,0.00,2,,145
2013-5-20,82,70,55,62,57,54,93,78,45,29.80,29.70,29.62,10,9,5,14,6,23,0.00,3,Rain-Thunderstorm,124
2013-5-21,64,59,54,61,57,52,100,93,77,29.70,29.65,29.62,10,5,0,9,5,,0.48,8,Fog-Rain,94
2013-5-22,59,52,44,58,50,41,100,92,77,29.94,29.77,29.68,10,6,0,18,7,28,0.02,8,Fog-Rain,1
2013-5-23,53,44,33,39,31,27,89,67,40,30.37,30.17,29.94,10,10,10,22,16,31,0.00,4,Rain,358
2013-5-24,64,46,28,36,31,25,89,57,28,30.45,30.38,30.30,10,10,10,8,3,,0.00,0,,121
2013-5-25,66,50,33,38,34,30,96,58,30,30.44,30.37,30.31,10,9,1,13,2,,0.00,0,,154
2013-5-26,66,50,35,38,31,27,93,52,23,30.38,30.30,30.23,10,10,10,13,3,16,0.00,0,,125
2013-5-27,71,52,35,42,36,32,93,54,29,30.24,30.09,29.94,10,10,10,15,4,25,0.00,2,,142
2013-5-28,55,53,51,52,48,39,96,81,55,29.93,29.82,29.74,10,9,4,7,4,,0.00,8,Rain,122
2013-5-29,80,65,50,62,56,48,100,82,43,29.88,29.82,29.76,10,8,2,12,4,20,0.06,6,Rain,200
2013-5-30,87,74,61,66,63,60,97,82,46,29.84,29.78,29.71,10,7,1,26,7,41,0.71,5,Rain-Thunderstorm,164
2013-5-31,80,70,62,64,59,51,97,75,47,29.73,29.69,29.64,10,10,8,17,9,24,0.00,5,Rain,178